Iron Mountain, MI

8:08 PM CDT on August 20, 2017 (GMT -0500)
Ford

Weather History for KIMT - June, 2014

Change the Weather History Date:

Thursday, June 12, 2014

  Actual Average Record
Temperature  
Mean Temperature 58 °F -  
Max Temperature 71 °F 73 °F 96 °F (1956)
Min Temperature 48 °F 50 °F 31 °F (1947)
Degree Days  
Heating Degree Days 6    
Growing Degree Days 8 (Base 50)    
Moisture  
Dew Point 51 °F    
Average Humidity 81    
Maximum Humidity 100    
Minimum Humidity 47    
Precipitation  
Precipitation 0.00 in - - ()
Sea Level Pressure  
Sea Level Pressure 29.71 in    
Wind  
Wind Speed 5 mph (SSW)    
Max Wind Speed 17 mph    
Max Gust Speed 32 mph    
Visibility 8 miles    
Events Fog , Rain    
Averages and records for this station are not official NWS values.
T = Trace of Precipitation, MM = Missing Value Source: NWS Daily Summary

Daily Weather History Graph

Daily Weather History Graph

Search for Another Location

Airport or City:

Trip Planner

Search our weather history database for the weather conditions in past years. The results will help you decide how hot, cold, wet, or windy it might be!

Date:

Astronomy

Jun. 12, 2014 Rise Set
Actual Time 5:02 AM CDT 8:42 PM CDT
Civil Twilight 4:23 AM CDT 9:21 PM CDT
Nautical Twilight 3:32 AM CDT 10:12 PM CDT
Astronomical Twilight 2:23 AM CDT 11:22 PM CDT
Moon 8:10 PM CDT (6/12) 4:47 AM CDT (6/12)
Length of Visible Light 16h 57m
Length of Day
15h 40m
Full, 100% of the Moon is Illuminated
Jun 12
Full
Jun 12
Full
Jun 19
Last Quarter
Jun 27
New
Jul 5
First Quarter

Hourly Weather History & Observations

Time (CDT) Temp. Dew Point Humidity Pressure Visibility Wind Dir Wind Speed Gust Speed Precip Events Conditions
12:54 AM 53.1 °F 50.0 °F 89% 29.79 in 10.0 mi Calm Calm - N/A   Clear
1:54 AM 51.1 °F 48.0 °F 89% 29.77 in 10.0 mi NNW 3.5 mph - N/A   Scattered Clouds
2:08 AM 50.0 °F 46.9 °F 89% 29.77 in 10.0 mi Calm Calm - N/A   Mostly Cloudy
2:54 AM 48.9 °F 46.9 °F 93% 29.74 in 10.0 mi Calm Calm - N/A   Mostly Cloudy
3:11 AM 50.0 °F 48.0 °F 93% 29.75 in 8.0 mi Calm Calm - N/A   Scattered Clouds
3:54 AM 53.1 °F 50.0 °F 89% 29.75 in 10.0 mi West 4.6 mph - N/A   Partly Cloudy
4:06 AM 48.0 °F 46.9 °F 96% 29.74 in 9.0 mi Calm Calm - N/A   Mostly Cloudy
4:32 AM 50.0 °F 48.0 °F 93% 29.73 in 8.0 mi Calm Calm - N/A   Scattered Clouds
4:54 AM 51.1 °F 50.0 °F 96% 29.72 in 8.0 mi Calm Calm - N/A   Mostly Cloudy
5:21 AM 54.0 °F 52.0 °F 93% 29.73 in 1.8 mi Calm Calm - N/A   Overcast
5:31 AM 54.0 °F 53.1 °F 97% 29.72 in 0.2 mi Calm Calm - N/A Fog Fog
5:54 AM 55.0 °F 54.0 °F 96% 29.70 in 0.2 mi SE 4.6 mph - N/A Fog Fog
6:11 AM 54.0 °F 54.0 °F 100% 29.70 in 0.2 mi SSE 4.6 mph - N/A Fog Fog
6:54 AM 55.0 °F 54.0 °F 96% 29.68 in 0.2 mi ESE 4.6 mph - N/A Fog Fog
7:15 AM 55.0 °F 55.0 °F 100% 29.71 in 0.5 mi SSW 5.8 mph - N/A Fog Fog
7:32 AM 55.9 °F 55.0 °F 97% 29.70 in 2.0 mi SSE 5.8 mph - N/A   Overcast
7:41 AM 55.9 °F 55.0 °F 97% 29.70 in 4.0 mi South 6.9 mph - N/A   Overcast
7:54 AM 55.9 °F 55.0 °F 97% 29.70 in 4.0 mi SSE 5.8 mph - N/A   Overcast
9:43 AM 59.0 °F 57.0 °F 93% 29.68 in 10.0 mi SE 5.8 mph - 0.00 in   Overcast
9:54 AM 59.0 °F 57.0 °F 93% 29.68 in 9.0 mi SE 5.8 mph - 0.00 in   Overcast
10:50 AM 60.8 °F 57.2 °F 88% 29.68 in 10.0 mi SSE 6.9 mph - N/A   Overcast
10:54 AM 61.0 °F 57.9 °F 90% 29.69 in 10.0 mi SSE 8.1 mph - N/A   Overcast
11:20 AM 62.1 °F 57.0 °F 84% 29.67 in 10.0 mi SSE 9.2 mph - N/A   Overcast
11:54 AM 62.1 °F 57.9 °F 86% 29.67 in 10.0 mi South 10.4 mph - N/A   Overcast
12:06 PM 62.1 °F 57.9 °F 86% 29.66 in 10.0 mi SSE 8.1 mph - N/A   Overcast
12:54 PM 66.9 °F 57.9 °F 73% 29.65 in 10.0 mi South 10.4 mph - N/A   Mostly Cloudy
1:04 PM 69.1 °F 59.0 °F 70% 29.65 in 10.0 mi WSW 8.1 mph 17.3 mph N/A   Mostly Cloudy
1:14 PM 68.0 °F 54.0 °F 61% 29.65 in 10.0 mi West 17.3 mph 26.5 mph N/A   Overcast
1:54 PM 66.9 °F 50.0 °F 54% 29.68 in 10.0 mi WSW 15.0 mph 24.2 mph 0.00 in Rain Light Rain
2:54 PM 68.0 °F 46.9 °F 47% 29.67 in 10.0 mi North - - 0.00 in   Overcast
3:54 PM 68.0 °F 46.9 °F 47% 29.66 in 10.0 mi West 17.3 mph 26.5 mph 0.00 in   Overcast
4:54 PM 64.9 °F 44.1 °F 47% 29.69 in 10.0 mi West 12.7 mph 32.2 mph 0.00 in   Overcast
5:54 PM 61.0 °F 45.0 °F 56% 29.70 in 10.0 mi WSW 9.2 mph 20.7 mph N/A   Overcast
6:54 PM 60.1 °F 46.0 °F 60% 29.70 in 10.0 mi WSW 12.7 mph 20.7 mph N/A   Overcast
7:54 PM 57.9 °F 45.0 °F 62% 29.71 in 10.0 mi West 10.4 mph 18.4 mph 0.00 in   Overcast
8:54 PM 55.9 °F 43.0 °F 62% 29.73 in 10.0 mi West 10.4 mph 21.9 mph 0.00 in   Overcast
9:54 PM 53.1 °F 42.1 °F 66% 29.74 in 10.0 mi WNW 13.8 mph 24.2 mph N/A   Mostly Cloudy
10:35 PM 53.1 °F 42.1 °F 66% 29.73 in 10.0 mi West 13.8 mph - N/A   Overcast
10:54 PM 52.0 °F 43.0 °F 71% 29.74 in 10.0 mi WNW 15.0 mph 26.5 mph N/A   Overcast
11:54 PM 51.1 °F 43.0 °F 74% 29.76 in 10.0 mi WNW 10.4 mph 21.9 mph N/A   Overcast